Location: Heisler
(52.6701°N, 112.2239°W)
Time: 15:19:22
(UTC+00:00)

Envisat - Pass Details

Date: 01 December 2021
Orbit: 764 x 766 km, 98.2° (Epoch: 26 January)

Event Time Altitude Azimuth Distance (km) Brightness Sun altitude
Rises 00:20:01 0° 192° (SSW) 3,222 6.8 -8.9°
Reaches altitude 10° 00:22:33 10° 203° (SSW) 2,301 6.2 -9.3°
Maximum altitude 00:27:04 32° 266° (W) 1,301 5.0 -9.9°
Drops below altitude 10° 00:31:37 10° 329° (NNW) 2,317 5.6 -10.5°
Sets 00:34:11 0° 339° (NNW) 3,248 6.2 -10.9°
